Lexington Weather

Lexington, Massachusetts, USA

39°F
1/23/2020 11:33am 
  • Lexington Conditions: Clear
  • Temperature: 39.4°F / 4.1°CWarmer 6.0°F than last hour.
  • Dew Point: 21.7°FIncreased 0.3°Fsince last hour.
  • Relative Humidity: 49%Decreased 12.0% since last hour.
  • Wind: Calm, 10-min avg: Calm, gust: None
  • Barometer: 30.32 inFalling 0.02  inHg/hr Falling Slowly
  • Visibility: 10 miles
  • Rain Today: 0.00 in
  •   

Regional Weather Roundup
for Boston / Norton, MA

        
000
ASUS41 KBOX 221910
RWRBOX

REGIONAL WEATHER ROUNDUP
NATIONAL WEATHER SERVICE BOSTON/NORTON MA
200 PM EST WED JAN 22 2020

NOTE:  "FAIR" INDICATES FEW OR NO CLOUDS BELOW 12,000 FEET WITH NO 
SIGNIFICANT WEATHER AND/OR OBSTRUCTIONS TO VISIBILITY.

MAZALL-222000-
EASTERN MASSACHUSETTS
  
CITY           SKY/WX    TMP DP  RH WIND       PRES   REMARKS
BOSTON         FAIR      38  15  39 W5        30.39S                  
BEVERLY        FAIR      34  16  47 SW3       30.37F                  
LAWRENCE       FAIR      33  16  49 SW7       30.38F WCI  27          
BEDFORD        FAIR      35  14  42 SW5       30.37F WCI  31          
BLUE HILL        N/A     32  15  49 W7        30.34S WCI  26          
NORWOOD        FAIR      38  15  39 S6        30.38F                  
MARSHFIELD     FAIR      34  16  47 NE8       30.38F WCI  27          
PLYMOUTH       FAIR      36  15  42 W5        30.38F                  
TAUNTON        FAIR      36  15  42 W7        30.38F WCI  30          
NEW BEDFORD    FAIR      35  14  42 W6        30.38F WCI  30          
$$

MAZALL-222000-
CAPE COD AND THE ISLANDS
  
CITY           SKY/WX    TMP DP  RH WIND       PRES   REMARKS
FALMOUTH       SUNNY     34   9  35 W8        30.39S WCI  27          
HYANNIS        FAIR      34  14  43 S7        30.37F WCI  28          
CHATHAM        FAIR      35  11  36 MISG      30.40S                  
PROVINCETOWN   FAIR      32  17  54 W6        30.40F WCI  26          
NANTUCKET      FAIR      34  15  46 SW9       30.40F WCI  27          
MARTHAS VNYRD  FAIR      36  11  35 NW8       30.40S WCI  30          
$$
 
MAZALL-222000-
CENTRAL AND WESTERN MASSACHUSETTS
  
CITY           SKY/WX    TMP DP  RH WIND       PRES   REMARKS
WORCESTER      FAIR      30  14  51 W15       30.33F WCI  19          
FITCHBURG      FAIR      34  16  47 W7        30.36F WCI  28          
ORANGE         FAIR      33  15  47 SE3       30.37F                  
SPRINGFIELD    MOSUNNY   33  16  48 CALM      30.38F                  
WESTFIELD      NOT AVBL                                               
NORTH ADAMS    FAIR      31  18  58 W6        30.37F WCI  25          
PITTSFIELD     FAIR      30  17  58 W5        30.33F WCI  25          
$$
 
RIZALL-222000-
RHODE ISLAND
  
CITY           SKY/WX    TMP DP  RH WIND       PRES   REMARKS
PROVIDENCE     FAIR      36  15  42 VRB5      30.39F                  
NEWPORT        NOT AVBL                                               
BLOCK ISLAND   FAIR      32  19  58 SW9       30.40F WCI  24          
SMITHFIELD     FAIR      35  15  44 VRB7      30.37S WCI  29          
WESTERLY       FAIR      37  16  42 SW8       30.40F WCI  31          
$$
 
CTZALL-222000-
CONNECTICUT
  
CITY           SKY/WX    TMP DP  RH WIND       PRES   REMARKS
BRADLEY INTL   PTSUNNY   33  17  51 E6        30.39F WCI  28          
HARTFORD       FAIR      34  17  50 SE3       30.40F                  
BRIDGEPORT     FAIR      34  18  52 SW10      30.42S WCI  26          
DANBURY        FAIR      34  16  47 SW5       30.40F WCI  30          
GROTON         FAIR      33  19  56 SW7       30.40S WCI  27          
NEW HAVEN      FAIR      35  21  56 S10       30.41S WCI  27          
CHESTER        FAIR      37  14  38 VRB7      30.38F                  
MERIDEN        FAIR      35  15  44 SW10      30.40F WCI  27          
WILLIMANTIC    FAIR      33  17  51 W9        30.40S WCI  25          
OXFORD         FAIR      33  15  47 W5        30.38S WCI  29          
$$

MEZ002-015-021-024-NHZ003-005-008-011-012-014-VTZ005-008-222000-
NORTHERN NEW ENGLAND
  
CITY           SKY/WX    TMP DP  RH WIND       PRES   REMARKS
PORTLAND ME    FAIR      34   8  33 CALM      30.36F                  
BANGOR ME      PTSUNNY   32  16  51 S7        30.34F WCI  26          
CONCORD NH     FAIR      34  15  46 VRB3      30.35F                  
MANCHESTER NH  FAIR      36  16  44 NE5       30.35F                  
NASHUA NH      FAIR      35  16  45 CALM      30.37F                  
PORTSMOUTH NH  MOSUNNY   34  15  45 SW7       30.34F WCI  28          
JAFFREY NH     FAIR      32  15  49 VRB5      30.32F WCI  27          
KEENE NH       FAIR      31  16  54 CALM      30.36F                  
BURLINGTON VT  FAIR      33  20  58 S15       30.31F WCI  23          
MT. WASHINGTON MOSUNNY   14   3  62 NW47        N/A  WCI -11          
$$

NYZ052-076-222000-
EASTERN NEW YORK
  
CITY           SKY/WX    TMP DP  RH WIND       PRES   REMARKS
ALBANY         FAIR      33  18  53 CALM      30.41F                  
NEW YORK CITY  FAIR      38  17  42 CALM      30.41F                  
$$
 
ANZALL-222000-
MARINE OBSERVATIONS
  
STATION/POSITION TIME  TEMP    WIND        PRES    VSBY  WAVE
                       AIR SEA DIR/SP/G                  HT/PER
                 (UTC) (F)     (DEG/KT/KT) (MB)    (MI)  (FT/S)
BOSTON BUOY      1850   33 42  270/  8/ 10 1028.7F         1/10
BUZZARDS BAY     1800   30     250/  7/  8 1030.0F
NANTUCKET SOUND  1840                        N/A           0
MASS BAY-STELLWA 1804   31 41  280/  6/ 10 1027.5F  1 7/8  2/11
ISLE OF SHOALS   1800   30     270/  5/  6 1028.5F
S OF BLOCK IS    1900      45                N/A           1/ 8
$$

......................KEY.........................
  SKY/WX - SKY CONDITION/PRESENT WEATHER
  TMP    - TEMPERATURE IN FAHRENHEIT
  DWPT   - DEWPOINT IN FAHRENHEIT
  RH     - RELATIVE HUMIDITY IN PERCENT
  WIND   - DIRECTION AND SPEED IN MPH
  PRES   - MEAN SEA LEVEL PRESSURE IN INCHES OF HG
  WCI    - WIND CHILL INDEX
  VSB    - VISIBILITY IN MILES
  HX     - HEAT INDEX
  TC     - TEMPERATURE IN CELSIUS
  VRB    - VARIABLE WIND DIRECTION
  N/A    - NOT AVAILABLE
  
      

Other recent Regional Weather Roundups

Thu Jan 23, 11:10am

Thu Jan 23, 11:00am

Thu Jan 23, 10:10am

Thu Jan 23, 10:00am

Thu Jan 23, 9:10am

Thu Jan 23, 9:00am

Thu Jan 23, 8:10am

Thu Jan 23, 8:00am

Thu Jan 23, 7:10am

Thu Jan 23, 7:01am

Thu Jan 23, 6:10am

Thu Jan 23, 6:00am

Thu Jan 23, 5:10am

Thu Jan 23, 5:00am

Thu Jan 23, 4:10am

Thu Jan 23, 4:01am

Thu Jan 23, 3:10am

Thu Jan 23, 3:00am

Thu Jan 23, 2:10am

Thu Jan 23, 2:00am

Thu Jan 23, 1:10am

Thu Jan 23, 1:00am

Thu Jan 23, 12:10am

Thu Jan 23, 12:00am

Wed Jan 22, 11:10pm

Wed Jan 22, 11:01pm

Wed Jan 22, 10:10pm

Wed Jan 22, 10:00pm

Wed Jan 22, 9:10pm

Wed Jan 22, 9:00pm

Wed Jan 22, 8:10pm

Wed Jan 22, 8:01pm

Wed Jan 22, 7:10pm

Wed Jan 22, 7:00pm

Wed Jan 22, 6:10pm

Wed Jan 22, 6:01pm

Wed Jan 22, 5:10pm

Wed Jan 22, 5:00pm

Wed Jan 22, 4:10pm

Wed Jan 22, 4:00pm

Wed Jan 22, 3:10pm

Wed Jan 22, 3:00pm

Wed Jan 22, 2:00pm

Wed Jan 22, 1:10pm

Wed Jan 22, 1:00pm

Wed Jan 22, 12:10pm

Wed Jan 22, 12:00pm

Wed Jan 22, 11:10am

Wed Jan 22, 11:00am

Wed Jan 22, 10:10am

Wed Jan 22, 10:01am

Wed Jan 22, 9:10am

Wed Jan 22, 9:00am

Wed Jan 22, 8:10am

Wed Jan 22, 8:00am

Wed Jan 22, 7:10am

Wed Jan 22, 7:00am

Wed Jan 22, 6:10am

Wed Jan 22, 6:00am

Wed Jan 22, 5:10am

Wed Jan 22, 5:00am

Wed Jan 22, 4:10am

Wed Jan 22, 4:00am

Wed Jan 22, 3:10am

Wed Jan 22, 3:01am

Wed Jan 22, 2:10am

Wed Jan 22, 2:00am

Wed Jan 22, 1:10am

Wed Jan 22, 1:00am

Wed Jan 22, 12:10am

Wed Jan 22, 12:00am

Tue Jan 21, 11:10pm

Tue Jan 21, 11:00pm

Tue Jan 21, 10:10pm

Tue Jan 21, 10:00pm

Tue Jan 21, 9:10pm

Tue Jan 21, 9:01pm

Tue Jan 21, 8:10pm

Tue Jan 21, 8:00pm

Tue Jan 21, 7:10pm

Tue Jan 21, 7:00pm

Tue Jan 21, 6:10pm

Tue Jan 21, 6:01pm

Tue Jan 21, 5:10pm

Tue Jan 21, 5:00pm

Tue Jan 21, 4:10pm

Tue Jan 21, 4:00pm

Tue Jan 21, 3:10pm

Tue Jan 21, 3:01pm

Tue Jan 21, 2:10pm

Tue Jan 21, 2:00pm

Tue Jan 21, 1:10pm

Tue Jan 21, 1:00pm

Tue Jan 21, 12:10pm

Tue Jan 21, 12:00pm

Tue Jan 21, 11:10am

Tue Jan 21, 11:00am

Tue Jan 21, 10:10am

Tue Jan 21, 10:00am

Tue Jan 21, 9:10am

Tue Jan 21, 9:00am

Tue Jan 21, 8:10am

Tue Jan 21, 8:00am

Tue Jan 21, 7:10am

Tue Jan 21, 7:00am

Tue Jan 21, 6:10am

Tue Jan 21, 6:00am

Tue Jan 21, 5:10am

Tue Jan 21, 5:00am

Tue Jan 21, 4:10am

Tue Jan 21, 4:00am

Tue Jan 21, 3:10am

Tue Jan 21, 3:00am

Tue Jan 21, 2:10am

Tue Jan 21, 2:01am

Tue Jan 21, 1:10am

Tue Jan 21, 1:00am

Tue Jan 21, 12:10am

Tue Jan 21, 12:00am

Mon Jan 20, 11:10pm

Mon Jan 20, 11:00pm

Mon Jan 20, 10:10pm

Mon Jan 20, 10:00pm

Mon Jan 20, 9:10pm

Mon Jan 20, 9:00pm

Mon Jan 20, 8:10pm

Mon Jan 20, 8:00pm

Mon Jan 20, 7:10pm

Mon Jan 20, 7:00pm

Mon Jan 20, 6:10pm

Mon Jan 20, 6:00pm

Mon Jan 20, 5:10pm

Mon Jan 20, 5:00pm

Mon Jan 20, 4:10pm

Mon Jan 20, 4:01pm

Mon Jan 20, 3:10pm

Mon Jan 20, 3:00pm

Mon Jan 20, 2:10pm

Mon Jan 20, 2:00pm

Mon Jan 20, 1:10pm

Mon Jan 20, 1:00pm

Mon Jan 20, 12:10pm

Mon Jan 20, 12:00pm

Meta data:

ID: 156c7854-d4a3-4498-8ffe-1ac8b570a279
Link: https://api.weather.gov/products/156c7854-d4a3-4498-8ffe-1ac8b570a279